DBR968 KMRY-KCRQ

Flight info

Callsign DBR968
Flight time N/A
Altitude 33000
Route BSR TILLT LEGOZ2
Aircraft CL30/M-SDE3FGJ4P2RWXY/SD1

Departure

Time 2026-04-25 15:09
Airport Monterey Regional Airport (KMRY)

Arrival

Time N/A
Airport McClellan-Palomar Airport (KCRQ)
Time Latitude Longitude Altitude Speed Heading
2026-04-25 14:57 36.58864 -121.85451 265 ft 0 kts 344°
2026-04-25 15:01 36.58864 -121.85452 265 ft 1 kts 344°
2026-04-25 15:02 36.58883 -121.85449 265 ft 5 kts 42°
2026-04-25 15:02 36.58899 -121.85396 265 ft 8 kts 71°
2026-04-25 15:02 36.58893 -121.85318 265 ft 10 kts 114°
2026-04-25 15:02 36.58861 -121.85226 265 ft 13 kts 113°
2026-04-25 15:03 36.58826 -121.85122 265 ft 14 kts 113°
2026-04-25 15:03 36.58781 -121.84995 265 ft 18 kts 113°
2026-04-25 15:03 36.58733 -121.84854 265 ft 17 kts 113°
2026-04-25 15:03 36.58687 -121.84721 265 ft 16 kts 113°
2026-04-25 15:04 36.58643 -121.84594 265 ft 16 kts 113°
2026-04-25 15:04 36.58601 -121.84474 265 ft 15 kts 113°
2026-04-25 15:04 36.58558 -121.84347 265 ft 16 kts 113°
2026-04-25 15:04 36.58515 -121.84223 265 ft 15 kts 113°
2026-04-25 15:05 36.58475 -121.84107 265 ft 14 kts 113°
2026-04-25 15:05 36.58437 -121.83997 265 ft 13 kts 113°
2026-04-25 15:05 36.58402 -121.83895 265 ft 12 kts 113°
2026-04-25 15:06 36.58333 -121.83695 265 ft 12 kts 113°
2026-04-25 15:06 36.58293 -121.83583 265 ft 15 kts 114°
2026-04-25 15:06 36.58262 -121.83465 265 ft 14 kts 81°
2026-04-25 15:06 36.58291 -121.83392 265 ft 0 kts 59°
2026-04-25 15:07 36.58298 -121.83377 265 ft 5 kts 59°
2026-04-25 15:07 36.58323 -121.83342 265 ft 4 kts 358°
2026-04-25 15:08 36.58335 -121.83361 265 ft 3 kts 292°
2026-04-25 15:08 36.58397 -121.83545 265 ft 59 kts 293°
2026-04-25 15:08 36.58667 -121.84343 265 ft 141 kts 292°
2026-04-25 15:08 36.59105 -121.85634 666 ft 182 kts 292°
2026-04-25 15:09 36.59691 -121.87133 1174 ft 197 kts 302°
2026-04-25 15:09 36.60710 -121.88316 1707 ft 206 kts 320°
2026-04-25 15:09 36.63133 -121.90460 2779 ft 237 kts 323°
2026-04-25 15:10 36.64308 -121.91933 3410 ft 244 kts 301°
2026-04-25 15:10 36.64765 -121.93989 4055 ft 253 kts 272°
2026-04-25 15:10 36.63132 -121.97834 5336 ft 269 kts 217°
2026-04-25 15:11 36.61462 -121.98859 5980 ft 274 kts 201°
2026-04-25 15:11 36.59647 -121.99590 6612 ft 275 kts 197°
2026-04-25 15:11 36.57772 -122.00130 7232 ft 278 kts 188°
2026-04-25 15:12 36.53860 -122.00010 8500 ft 284 kts 176°
2026-04-25 15:12 36.51890 -121.99726 9122 ft 287 kts 171°
2026-04-25 15:12 36.50033 -121.98774 9757 ft 292 kts 150°
2026-04-25 15:12 36.49473 -121.98331 9964 ft 294 kts 147°
2026-04-25 15:13 36.46725 -121.95662 11209 ft 313 kts 141°
2026-04-25 15:13 36.43334 -121.92002 12828 ft 329 kts 140°
2026-04-25 15:13 36.41609 -121.90096 13634 ft 334 kts 139°
2026-04-25 15:14 36.39888 -121.88169 14429 ft 339 kts 140°
2026-04-25 15:14 36.38125 -121.86183 15235 ft 343 kts 140°
2026-04-25 15:14 36.36342 -121.84183 16039 ft 348 kts 140°
2026-04-25 15:14 36.34543 -121.82153 16842 ft 352 kts 140°
2026-04-25 15:15 36.32732 -121.80092 17645 ft 356 kts 140°
2026-04-25 15:15 36.30905 -121.77992 18449 ft 359 kts 140°
2026-04-25 15:15 36.29072 -121.75863 19251 ft 364 kts 140°
2026-04-25 15:15 36.27220 -121.73692 20054 ft 368 kts 140°
2026-04-25 15:16 36.25356 -121.71485 20856 ft 373 kts 140°
2026-04-25 15:16 36.23497 -121.69281 21647 ft 377 kts 141°
2026-04-25 15:16 36.19495 -121.64997 23257 ft 384 kts 147°
2026-04-25 15:17 36.15143 -121.61050 24867 ft 393 kts 150°
2026-04-25 15:17 36.12889 -121.59100 25672 ft 397 kts 150°
2026-04-25 15:17 36.10607 -121.57144 26476 ft 401 kts 151°
2026-04-25 15:18 36.08301 -121.55168 27282 ft 403 kts 150°
2026-04-25 15:18 36.03694 -121.51198 28890 ft 403 kts 150°
2026-04-25 15:18 36.01403 -121.49208 29692 ft 401 kts 150°
2026-04-25 15:19 35.99133 -121.47228 30491 ft 398 kts 151°
2026-04-25 15:19 35.98402 -121.46588 30749 ft 397 kts 151°
2026-04-25 15:19 35.94646 -121.43296 31801 ft 399 kts 152°
2026-04-25 15:19 35.92372 -121.41302 32313 ft 402 kts 152°
2026-04-25 15:20 35.90097 -121.39308 32787 ft 406 kts 152°
2026-04-25 15:20 35.87751 -121.37257 32932 ft 417 kts 152°
2026-04-25 15:20 35.85348 -121.35161 33005 ft 428 kts 152°
2026-04-25 15:20 35.82919 -121.33041 33008 ft 436 kts 152°
2026-04-25 15:21 35.77949 -121.28681 33002 ft 437 kts 152°
2026-04-25 15:21 35.72994 -121.24313 33002 ft 438 kts 152°
2026-04-25 15:22 35.68063 -121.19971 33005 ft 439 kts 152°
2026-04-25 15:22 35.63097 -121.15607 33008 ft 439 kts 152°
2026-04-25 15:23 35.58122 -121.11242 33009 ft 440 kts 152°
2026-04-25 15:23 35.53128 -121.06873 33009 ft 440 kts 152°
2026-04-25 15:24 35.48162 -121.02520 33009 ft 441 kts 151°
2026-04-25 15:24 35.44908 -120.99425 33009 ft 444 kts 148°
2026-04-25 15:25 35.38597 -120.92893 33007 ft 447 kts 146°
2026-04-25 15:25 35.33946 -120.87885 33005 ft 448 kts 146°
2026-04-25 15:26 35.29276 -120.82814 33003 ft 448 kts 146°
2026-04-25 15:26 35.24605 -120.77744 33001 ft 448 kts 146°
2026-04-25 15:27 35.19930 -120.72686 33000 ft 449 kts 146°
2026-04-25 15:28 35.12894 -120.65109 33000 ft 449 kts 146°
2026-04-25 15:28 35.08223 -120.60101 33001 ft 450 kts 146°
2026-04-25 15:29 35.03365 -120.55341 33008 ft 445 kts 150°
2026-04-25 15:29 34.98306 -120.50977 33009 ft 444 kts 153°
2026-04-25 15:30 34.93210 -120.46821 33009 ft 443 kts 154°
2026-04-25 15:30 34.88035 -120.42684 33009 ft 443 kts 154°
2026-04-25 15:31 34.82900 -120.38594 33010 ft 444 kts 154°
2026-04-25 15:31 34.77721 -120.34460 33013 ft 444 kts 154°
2026-04-25 15:32 34.72539 -120.30308 33015 ft 445 kts 154°
2026-04-25 15:32 34.67388 -120.26177 33016 ft 446 kts 154°
2026-04-25 15:33 34.59601 -120.19942 33013 ft 447 kts 154°
2026-04-25 15:33 34.54413 -120.15797 33009 ft 448 kts 154°
2026-04-25 15:34 34.49202 -120.11639 33007 ft 449 kts 154°
2026-04-25 15:34 34.45707 -120.08853 33005 ft 449 kts 154°
2026-04-25 15:35 34.36113 -120.01222 32996 ft 450 kts 154°
2026-04-25 15:36 34.28276 -119.95003 32993 ft 451 kts 154°
2026-04-25 15:36 34.23014 -119.90836 32993 ft 452 kts 154°
2026-04-25 15:37 34.17749 -119.86672 32994 ft 452 kts 154°
2026-04-25 15:37 34.12479 -119.82509 32992 ft 452 kts 154°
2026-04-25 15:38 34.07500 -119.77810 32738 ft 470 kts 141°
2026-04-25 15:38 34.05321 -119.74803 32320 ft 477 kts 135°
2026-04-25 15:38 34.03361 -119.71571 31881 ft 478 kts 130°
2026-04-25 15:39 34.01551 -119.68195 31434 ft 478 kts 127°
2026-04-25 15:39 33.99875 -119.64802 30991 ft 476 kts 125°
2026-04-25 15:39 33.98249 -119.61343 30541 ft 473 kts 124°
2026-04-25 15:39 33.96661 -119.57881 30090 ft 470 kts 124°
2026-04-25 15:40 33.95096 -119.54442 29639 ft 466 kts 124°
2026-04-25 15:40 33.94567 -119.53285 29487 ft 465 kts 124°
2026-04-25 15:40 33.91965 -119.47667 28737 ft 458 kts 125°
2026-04-25 15:40 33.90920 -119.45465 28438 ft 456 kts 125°
2026-04-25 15:41 33.89329 -119.42167 27986 ft 452 kts 126°
2026-04-25 15:41 33.87742 -119.38916 27535 ft 449 kts 126°
2026-04-25 15:41 33.86151 -119.35684 27083 ft 446 kts 127°
2026-04-25 15:41 33.84565 -119.32479 26631 ft 443 kts 127°
2026-04-25 15:42 33.83012 -119.29347 26186 ft 440 kts 127°
2026-04-25 15:42 33.81450 -119.26202 25736 ft 437 kts 127°
2026-04-25 15:42 33.79893 -119.23070 25284 ft 434 kts 127°
2026-04-25 15:42 33.78345 -119.19956 24832 ft 431 kts 127°
2026-04-25 15:43 33.76811 -119.16870 24380 ft 428 kts 127°
2026-04-25 15:43 33.75285 -119.13802 23928 ft 425 kts 127°
2026-04-25 15:43 33.73788 -119.10793 23482 ft 423 kts 127°
2026-04-25 15:43 33.72279 -119.07760 23030 ft 420 kts 127°
2026-04-25 15:44 33.70791 -119.04766 22577 ft 411 kts 127°
2026-04-25 15:44 33.69364 -119.01887 22130 ft 401 kts 127°
2026-04-25 15:44 33.67949 -118.99034 21677 ft 394 kts 127°
2026-04-25 15:44 33.66548 -118.96217 21224 ft 389 kts 127°
2026-04-25 15:45 33.65163 -118.93438 20771 ft 384 kts 127°
2026-04-25 15:45 33.63807 -118.90723 20324 ft 380 kts 127°
2026-04-25 15:45 33.62449 -118.88009 19872 ft 377 kts 127°
2026-04-25 15:45 33.61557 -118.86228 19574 ft 375 kts 127°
2026-04-25 15:46 33.59765 -118.82654 18970 ft 371 kts 127°
2026-04-25 15:46 33.58430 -118.80056 18522 ft 367 kts 128°
2026-04-25 15:46 33.57036 -118.77499 18036 ft 364 kts 130°
2026-04-25 15:46 33.55620 -118.75016 17537 ft 358 kts 131°
2026-04-25 15:47 33.54194 -118.72592 17035 ft 352 kts 131°